Погода в Адамове

Чехия     49°18′06″N   16°39′10″E
темп.,
°C
ветер,
м/с
пор.,
м/с
влажн.,
%
обл.,
%
осадки,
мм/ч
давл.,
гПа
погр.,
м
10 мая, пн
пн1023:00+12юв6166640 0.0 1016763
02:00+11юв717615 0.0 1015749
05:00+10юв717665 0.0 1014726
08:00+12ююв716675 0.0 1015780
11:00+16ююв8116017 0.0 10141007
14:00+20ююв8105523 0.0 10131373
17:00+21юв6116128 0.0 10121582
20:00+17юв513750 0.0 1012643
11 мая, вт
вт1123:00+15юв6157660 0.0 1012650
02:00+15юв615775 0.0 1010706
05:00+14юв615770 0.0 1009752
08:00+15ююв716725 0.0 1009842
11:00+20ююв815596 0.0 10091166
14:00+23ююв8145497 0.0 10081833
17:00+23ююв713585 0.0 10061592
20:00+19юв6147274 0.0 1006891
12 мая, ср
ср1223:00+17юв61577100 0.0 1006725
02:00+15юв4148499 0.0 1006443
05:00+12вюв1194100 0.1 100611
08:00+16юв37775 0.3 1005570
11:00+19юв3561100 0.0 1004948
14:00+19ю3565100 0.1 10031029
17:00+17ююз3577100 0.1 1002732
20:00+14ю2393100 1.7 1001113
13 мая, чт
чт1323:00+10ююв349498 1.5 1002244
02:00+9ю3693100 1.6 1002425
05:00+8ю3692100 0.3 1002439
08:00+9ю468692 0.3 1002601
11:00+11ююз5774100 0.0 1002908
14:00+9ююз5882100 0.1 1003698
17:00+10юз4882100 0.0 1004629
20:00+9юз4882100 0.0 1005662
14 мая, пт
пт1423:00+8юз4886100 0.0 1006597
02:00+7юз3889100 0.1 1006609
05:00+7юз3897100 0.7 1006440
08:00+7юз3797100 1.9 1007465
11:00+8юз3797100 0.7 1009457
14:00+9юз3596100 1.1 1010351
17:00+11юз248796 0.1 1010529
20:00+9ю239483 0.1 101169